KA8DUX-2 Weather Reports


Display with metric or nautical units.
time (UTC)temp
F
wind
direction
speed
MPH
gust
MPH
rain 1hr
in
rain 24hr
in
rain mn
in
humidity
%
barometer
mb
20260504231213 75 186 3.0 5.0 0.00 0.00 0.00 39 996.3
20260504230709 74 167 3.0 5.0 0.00 0.00 0.00 39 996.5
20260504230208 74 244 1.0 1.0 0.00 0.00 0.00 39 996.7
20260504225706 75 133 1.0 2.0 0.00 0.00 0.00 39 996.6
20260504225202 75 218 4.0 5.0 0.00 0.00 0.00 38 996.8
20260504224659 75 257 3.0 6.0 0.00 0.00 0.00 37 996.6
20260504224156 75 177 2.0 2.0 0.00 0.00 0.00 37 997.0
20260504223653 76 218 5.0 6.0 0.00 0.00 0.00 38 996.9
20260504223148 76 230 2.0 2.0 0.00 0.00 0.00 36 997.0
20260504222646 76 316 2.0 2.0 0.00 0.00 0.00 37 997.1
20260504222142 75 176 3.0 5.0 0.00 0.00 0.00 36 997.2
20260504221640 76 155 3.0 6.0 0.00 0.00 0.00 36 997.1
20260504221137 76 129 1.0 2.0 0.00 0.00 0.00 37 997.2
20260504220633 75 207 3.0 5.0 0.00 0.00 0.00 37 997.1
20260504220131 76 273 3.0 6.0 0.00 0.00 0.00 37 997.4
20260504215627 76 241 4.0 6.0 0.00 0.00 0.00 37 997.2
20260504215125 75 214 3.0 3.0 0.00 0.00 0.00 37 997.3
20260504214621 75 226 1.0 2.0 0.00 0.00 0.00 37 997.4
20260504214117 75 176 3.0 5.0 0.00 0.00 0.00 36 997.6
20260504213613 75 240 7.0 10.0 0.00 0.00 0.00 36 997.7
20260504213110 76 210 14.0 17.0 0.00 0.00 0.00 35 997.5
20260504212606 76 166 3.0 5.0 0.00 0.00 0.00 36 997.9
20260504212104 76 259 4.0 8.0 0.00 0.00 0.00 35 997.8
20260504211601 76 196 6.0 8.0 0.00 0.00 0.00 34 997.8
20260504211057 76 137 2.0 3.0 0.00 0.00 0.00 34 998.0
20260504210555 76 248 11.0 20.0 0.00 0.00 0.00 32 998.3
20260504210051 76 47 5.0 8.0 0.00 0.00 0.00 34 997.9
20260504205549 76 187 9.0 15.0 0.00 0.00 0.00 33 998.3
20260504205047 76 184 5.0 8.0 0.00 0.00 0.00 33 998.0
20260504204544 76 148 3.0 5.0 0.00 0.00 0.00 33 998.2
20260504204044 76 211 2.0 3.0 0.00 0.00 0.00 31 998.4
20260504203541 76 288 6.0 11.0 0.00 0.00 0.00 32 998.5
20260504203038 77 208 7.0 8.0 0.00 0.00 0.00 29 998.3
20260504202534 77 144 7.0 11.0 0.00 0.00 0.00 29 998.4
20260504202031 76 233 5.0 8.0 0.00 0.00 0.00 29 998.5
20260504201528 77 279 3.0 5.0 0.00 0.00 0.00 29 998.6
20260504201026 76 250 3.0 3.0 0.00 0.00 0.00 32 998.5
20260504200521 76 228 9.0 10.0 0.00 0.00 0.00 29 998.7
20260504200019 76 220 5.0 6.0 0.00 0.00 0.00 30 998.6
20260504195515 76 210 3.0 3.0 0.00 0.00 0.00 30 998.6
20260504195011 76 144 2.0 2.0 0.00 0.00 0.00 29 998.4
20260504194508 76 253 6.0 7.0 0.00 0.00 0.00 28 998.7
20260504194003 77 200 5.0 6.0 0.00 0.00 0.00 29 998.7
20260504193501 78 158 2.0 2.0 0.00 0.00 0.00 30 998.7
20260504192959 77 250 7.0 8.0 0.00 0.00 0.00 29 998.7
20260504192456 77 274 3.0 7.0 0.00 0.00 0.00 29 998.8
20260504191955 77 221 4.0 5.0 0.00 0.00 0.00 29 998.8
20260504191453 76 239 5.0 8.0 0.00 0.00 0.00 28 998.8
20260504190947 77 252 8.0 11.0 0.00 0.00 0.00 28 999.0
20260504190444 76 224 4.0 6.0 0.00 0.00 0.00 29 998.7
20260504185941 77 220 5.0 8.0 0.00 0.00 0.00 29 998.8
20260504185438 77 162 3.0 5.0 0.00 0.00 0.00 29 998.6
20260504184934 78 227 5.0 6.0 0.00 0.00 0.00 27 998.8
20260504184429 78 149 2.0 3.0 0.00 0.00 0.00 29 998.8
20260504183926 76 145 5.0 6.0 0.00 0.00 0.00 28 998.5
20260504183423 76 264 8.0 13.0 0.00 0.00 0.00 27 998.8
20260504182921 77 275 4.0 5.0 0.00 0.00 0.00 27 998.9
20260504182418 77 311 2.0 2.0 0.00 0.00 0.00 28 998.9
20260504181914 77 235 6.0 10.0 0.00 0.00 0.00 26 998.9
20260504181412 77 129 2.0 3.0 0.00 0.00 0.00 27 998.9
20260504180910 77 107 2.0 3.0 0.00 0.00 0.00 27 998.9
20260504180409 78 199 6.0 8.0 0.00 0.00 0.00 26 999.0
20260504175907 78 218 3.0 5.0 0.00 0.00 0.00 26 999.1
20260504175403 78 246 2.0 5.0 0.00 0.00 0.00 27 998.8
20260504174901 78 223 3.0 6.0 0.00 0.00 0.00 26 999.2
20260504174358 77 181 3.0 3.0 0.00 0.00 0.00 27 999.1
20260504173855 77 8 3.0 5.0 0.00 0.00 0.00 27 999.2
20260504173352 77 272 3.0 3.0 0.00 0.00 0.00 27 999.4
20260504172849 77 147 3.0 5.0 0.00 0.00 0.00 27 999.5
20260504172346 76 178 5.0 7.0 0.00 0.00 0.00 26 999.5
20260504171841 76 163 6.0 8.0 0.00 0.00 0.00 25 999.5
20260504171339 77 245 8.0 10.0 0.00 0.00 0.00 27 999.5
20260504170836 78 352 4.0 6.0 0.00 0.00 0.00 27 999.5
20260504170333 77 242 2.0 2.0 0.00 0.00 0.00 29 999.6
20260504160251 73 113 1.0 2.0 0.00 0.00 0.00 36 1000.4
20260504150716 70 218 3.0 3.0 0.00 0.00 0.00 48 1001.1
20260504150213 69 221 2.0 2.0 0.00 0.00 0.00 49 1000.9
20260504141142 64 96 1.0 1.0 0.00 0.00 0.00 60 1001.8
20260504140639 64 259 2.0 6.0 0.00 0.00 0.00 60 1001.8
20260504140135 63 218 2.0 3.0 0.00 0.00 0.00 60 1001.6
20260504130603 57 185 2.0 3.0 0.00 0.00 0.00 72 1002.3
20260504110451 49 125 1.0 1.0 0.00 0.00 0.00 86 1002.0
20260504100407 49 162 1.0 1.0 0.00 0.00 0.00 85 1001.9
20260504081800 49 137 0.0 0.0 0.00 0.00 0.00 83 1002.4
20260504081257 50 142 0.0 0.0 0.00 0.00 0.00 82 1002.6
20260504080753 50 137 0.0 0.0 0.00 0.00 0.00 82 1002.4
20260504080250 50 135 0.0 0.0 0.00 0.00 0.00 81 1002.6
20260504070217 51 167 3.0 3.0 0.00 0.00 0.00 81 1003.1
20260504060138 51 134 1.0 1.0 0.00 0.00 0.00 79 1003.8
20260504050606 51 125 1.0 1.0 0.00 0.00 0.00 80 1004.4
20260504050103 51 222 5.0 7.0 0.00 0.00 0.00 80 1004.2
20260504045600 51 150 1.0 1.0 0.00 0.00 0.00 79 1004.4
20260504045055 51 169 2.0 3.0 0.00 0.00 0.00 79 1004.4
20260504044553 51 165 1.0 3.0 0.00 0.00 0.00 79 1004.4
20260504044049 51 159 0.0 1.0 0.00 0.00 0.00 79 1004.4
20260504043547 51 225 3.0 3.0 0.00 0.00 0.00 79 1004.4
20260504043044 51 60 3.0 3.0 0.00 0.00 0.00 79 1004.5
20260504042541 51 153 2.0 3.0 0.00 0.00 0.00 79 1004.3
20260504042038 51 124 5.0 10.0 0.00 0.00 0.00 79 1004.5
20260504041533 51 156 2.0 3.0 0.00 0.00 0.00 79 1004.5
20260504041030 51 209 2.0 2.0 0.00 0.00 0.00 79 1004.7
20260504040527 50 103 3.0 5.0 0.00 0.00 0.00 79 1004.5
20260504040024 51 135 1.0 2.0 0.00 0.00 0.00 78 1004.6
20260504035521 51 142 2.0 2.0 0.00 0.00 0.00 78 1004.6
20260504035017 51 157 1.0 2.0 0.00 0.00 0.00 78 1004.7
20260504034515 51 191 1.0 2.0 0.00 0.00 0.00 78 1005.0
20260504034012 51 145 1.0 2.0 0.00 0.00 0.00 77 1005.0
20260504033510 51 301 2.0 3.0 0.00 0.00 0.00 77 1004.8
20260504033007 50 267 3.0 6.0 0.00 0.00 0.00 78 1005.1
20260504032503 51 110 1.0 1.0 0.00 0.00 0.00 77 1004.9
20260504032000 51 263 6.0 9.0 0.00 0.00 0.00 77 1005.3
20260504031457 51 132 0.0 0.0 0.00 0.00 0.00 77 1005.1
20260504030954 51 178 3.0 5.0 0.00 0.00 0.00 76 1005.1
20260504030451 51 120 1.0 1.0 0.00 0.00 0.00 76 1005.2
20260504025946 51 172 2.0 2.0 0.00 0.00 0.00 75 1005.2
20260504025444 51 192 2.0 2.0 0.00 0.00 0.00 75 1005.2
20260504024941 51 227 3.0 5.0 0.00 0.00 0.00 75 1005.2
20260504024438 51 204 1.0 1.0 0.00 0.00 0.00 75 1005.3
20260504023935 51 121 0.0 0.0 0.00 0.00 0.00 74 1005.3
20260504023431 51 81 1.0 2.0 0.00 0.00 0.00 74 1005.3
20260504022927 52 137 2.0 2.0 0.00 0.00 0.00 73 1005.3
20260504022423 52 133 1.0 2.0 0.00 0.00 0.00 72 1005.1
20260504021920 52 142 0.0 0.0 0.00 0.00 0.00 73 1005.3
20260504021417 52 172 1.0 1.0 0.00 0.00 0.00 72 1005.2
20260504020915 52 97 0.0 1.0 0.00 0.00 0.00 72 1005.1
20260504020411 53 217 2.0 2.0 0.00 0.00 0.00 71 1005.1
20260504015908 53 145 1.0 1.0 0.00 0.00 0.00 71 1005.3
20260504015404 53 113 0.0 1.0 0.00 0.00 0.00 71 1005.4
20260504014900 53 172 0.0 1.0 0.00 0.00 0.00 71 1005.0
20260504014356 53 261 2.0 3.0 0.00 0.00 0.00 71 1005.2
20260504013853 53 222 1.0 2.0 0.00 0.00 0.00 70 1005.2
20260504013351 53 141 2.0 3.0 0.00 0.00 0.00 70 1005.1
20260504012847 53 247 1.0 1.0 0.00 0.00 0.00 69 1005.3
20260504012345 53 241 0.0 1.0 0.00 0.00 0.00 69 1005.2
20260504011843 53 151 1.0 2.0 0.00 0.00 0.00 69 1005.2
20260504011339 53 245 1.0 2.0 0.00 0.00 0.00 69 1005.1
20260504010835 54 219 3.0 3.0 0.00 0.00 0.00 68 1005.2
20260504010331 54 96 1.0 2.0 0.00 0.00 0.00 68 1005.2
20260504005828 54 192 1.0 2.0 0.00 0.00 0.00 68 1005.0
20260504005325 54 202 4.0 8.0 0.00 0.00 0.00 68 1005.2
20260504004822 54 142 2.0 3.0 0.00 0.00 0.00 67 1005.5
20260504004320 54 160 0.0 0.0 0.00 0.00 0.00 67 1005.5
20260504003816 54 144 7.0 11.0 0.00 0.00 0.00 67 1005.3
20260504003313 54 165 3.0 3.0 0.00 0.00 0.00 66 1005.4
20260504002809 54 316 2.0 3.0 0.00 0.00 0.00 66 1005.3
20260504002306 55 178 3.0 3.0 0.00 0.00 0.00 66 1005.4
20260504001804 55 88 1.0 1.0 0.00 0.00 0.00 66 1005.5
20260504001301 55 138 2.0 5.0 0.00 0.00 0.00 65 1005.7
20260504000758 55 216 2.0 2.0 0.00 0.00 0.00 65 1005.8
20260504000255 55 128 3.0 5.0 0.00 0.00 0.00 65 1005.7
20260503235753 55 147 1.0 2.0 0.00 0.00 0.00 65 1005.5
20260503235250 55 173 2.0 2.0 0.00 0.00 0.00 64 1005.5
20260503234748 55 162 3.0 7.0 0.00 0.00 0.00 64 1005.7
20260503234245 55 174 1.0 2.0 0.00 0.00 0.00 64 1005.6
20260503233742 55 108 1.0 1.0 0.00 0.00 0.00 64 1005.7
20260503233238 55 234 3.0 3.0 0.00 0.00 0.00 63 1005.7
20260503232735 55 226 5.0 7.0 0.00 0.00 0.00 63 1005.8
20260503232232 55 140 3.0 3.0 0.00 0.00 0.00 63 1005.9
20260503231730 56 165 4.0 6.0 0.00 0.00 0.00 62 1006.2